Mandan, ND

3:25 AM CDT on August 22, 2017 (GMT -0500)
Mandan

Weather History for KY19 - March, 2013

Change the Weather History Date:

Monday, March 4, 2013

  Actual Average (KBIS) Record (KBIS)
Temperature  
Mean Temperature 26 °F -  
Max Temperature 32 °F 30 °F 69 °F (2000)
Min Temperature 19 °F 10 °F -33 °F (1891)
Degree Days  
Heating Degree Days 40    
Moisture  
Dew Point 27 °F    
Average Humidity 100    
Maximum Humidity 100    
Minimum Humidity 93    
Precipitation  
Precipitation 3.43 in - - ()
Sea Level Pressure  
Sea Level Pressure 29.73 in    
Wind  
Wind Speed 15 mph (West)    
Max Wind Speed 30 mph    
Max Gust Speed 43 mph    
Visibility 6 miles    
Events Rain , Snow    
Averages and records for this station are not official NWS values.
T = Trace of Precipitation, MM = Missing Value Source: NWS Daily Summary

Daily Weather History Graph

Daily Weather History Graph

Search for Another Location

Airport or City:

Trip Planner

Search our weather history database for the weather conditions in past years. The results will help you decide how hot, cold, wet, or windy it might be!

Date:

Astronomy

Mar. 04, 2013 Rise Set
Actual Time 7:17 AM CST 6:34 PM CST
Civil Twilight 6:46 AM CST 7:04 PM CST
Nautical Twilight 6:11 AM CST 7:39 PM CST
Astronomical Twilight 5:36 AM CST 8:14 PM CST
Moon 1:44 AM CST (3/4) 11:01 AM CST (3/4)
Length of Visible Light 12h 17m
Length of Day
11h 17m
Waning Gibbous, 52% of the Moon is Illuminated
Mar 4
Waning Gibbous
Mar 4
Last Quarter
Mar 11
New
Mar 19
First Quarter
Mar 27
Full

Hourly Weather History & Observations

Time (CST) Temp. Windchill Dew Point Humidity Pressure Visibility Wind Dir Wind Speed Gust Speed Precip Events Conditions
12:15 AM 32.0 °F 23.0 °F 32.0 °F 100% 29.60 in 5.0 mi SE 11.5 mph - N/A Rain Light Rain
12:35 AM 32.0 °F 20.5 °F 32.0 °F 100% 29.65 in 7.0 mi SW 18.4 mph 23.0 mph N/A Rain Light Rain
12:55 AM 32.0 °F 21.6 °F 32.0 °F 100% 29.64 in 2.0 mi SSW 15.0 mph 24.2 mph 0.05 in Snow Light Snow
1:15 AM 32.0 °F 23.6 °F 32.0 °F 100% 29.63 in 1.2 mi South 10.4 mph - 0.04 in Snow Light Snow
1:35 AM 32.0 °F 25.6 °F 32.0 °F 100% 29.63 in 1.0 mi South 6.9 mph - 0.13 in Snow Light Snow
1:55 AM 32.0 °F 24.8 °F 32.0 °F 100% 29.62 in 1.2 mi South 8.1 mph - 0.19 in Snow Light Snow
2:15 AM 32.0 °F 27.5 °F 32.0 °F 100% 29.61 in 1.2 mi South 4.6 mph - 0.01 in Snow Light Snow
2:55 AM 32.0 °F 23.6 °F 32.0 °F 100% 29.63 in 2.0 mi SSW 10.4 mph - 0.02 in Snow Light Snow
3:15 AM 32.0 °F 24.2 °F 32.0 °F 100% 29.62 in - SW 9.2 mph - 0.12 in Snow Heavy Snow
3:35 AM 32.0 °F 24.8 °F 32.0 °F 100% 29.62 in - SW 8.1 mph - 0.36 in Snow Heavy Snow
3:55 AM 32.0 °F 24.8 °F 32.0 °F 100% 29.62 in - SW 8.1 mph - 0.40 in Snow Heavy Snow
4:15 AM 32.0 °F 25.6 °F 32.0 °F 100% 29.62 in - SW 6.9 mph - N/A   Unknown
4:35 AM 32.0 °F 24.2 °F 32.0 °F 100% 29.62 in 10.0 mi West 9.2 mph - N/A   Overcast
4:55 AM 32.0 °F 24.2 °F 32.0 °F 100% 29.62 in 10.0 mi WSW 9.2 mph - N/A   Overcast
5:15 AM 32.0 °F 23.6 °F 32.0 °F 100% 29.62 in 10.0 mi West 10.4 mph - N/A   Overcast
5:35 AM 32.0 °F 24.2 °F 32.0 °F 100% 29.62 in 10.0 mi West 9.2 mph - N/A   Overcast
5:55 AM 32.0 °F 22.5 °F 32.0 °F 100% 29.62 in 10.0 mi West 12.7 mph - N/A   Overcast
6:15 AM 32.0 °F 22.5 °F 32.0 °F 100% 29.62 in 10.0 mi West 12.7 mph - N/A   Overcast
6:35 AM 32.0 °F 21.6 °F 32.0 °F 100% 29.62 in 10.0 mi West 15.0 mph - N/A   Mostly Cloudy
6:55 AM 32.0 °F 22.1 °F 32.0 °F 100% 29.63 in 10.0 mi WSW 13.8 mph - N/A   Scattered Clouds
7:15 AM 30.2 °F 19.8 °F 30.2 °F 100% 29.63 in 10.0 mi WSW 13.8 mph - N/A   Partly Cloudy
7:35 AM 28.4 °F 16.6 °F 28.4 °F 100% 29.63 in 10.0 mi WSW 16.1 mph - N/A   Clear
7:55 AM 28.4 °F 16.6 °F 26.6 °F 93% 29.63 in 10.0 mi West 16.1 mph 21.9 mph N/A   Clear
8:15 AM 28.4 °F 16.6 °F 26.6 °F 93% 29.62 in 10.0 mi West 16.1 mph - N/A   Clear
8:35 AM 26.6 °F 14.3 °F 26.6 °F 100% 29.63 in 10.0 mi WSW 16.1 mph - N/A   Partly Cloudy
8:55 AM 26.6 °F 14.7 °F 26.6 °F 100% 29.64 in 10.0 mi WSW 15.0 mph 18.4 mph N/A   Partly Cloudy
9:15 AM 28.4 °F 17.5 °F 26.6 °F 93% 29.64 in 10.0 mi WSW 13.8 mph - N/A   Partly Cloudy
9:35 AM 28.4 °F 17.0 °F 28.4 °F 100% 29.64 in 10.0 mi WSW 15.0 mph - N/A   Mostly Cloudy
9:55 AM 28.4 °F 17.5 °F 28.4 °F 100% 29.64 in 10.0 mi WSW 13.8 mph - N/A   Overcast
10:15 AM 30.2 °F 19.3 °F 28.4 °F 93% 29.64 in 10.0 mi West 15.0 mph - N/A Rain Light Freezing Rain
10:35 AM 30.2 °F 19.8 °F 30.2 °F 100% 29.65 in 10.0 mi WSW 13.8 mph 19.6 mph N/A Rain Light Freezing Rain
10:55 AM 30.2 °F 19.8 °F 30.2 °F 100% 29.65 in 10.0 mi WSW 13.8 mph - N/A Rain Light Freezing Rain
11:15 AM 30.2 °F 19.8 °F 30.2 °F 100% 29.65 in 10.0 mi WSW 13.8 mph - N/A   Overcast
11:35 AM 32.0 °F 22.5 °F 32.0 °F 100% 29.66 in 10.0 mi West 12.7 mph - N/A Rain Light Rain
11:55 AM 32.0 °F 22.5 °F 32.0 °F 100% 29.66 in 10.0 mi WSW 12.7 mph - N/A   Overcast
12:15 PM 32.0 °F 24.8 °F 32.0 °F 100% 29.66 in 10.0 mi WSW 8.1 mph - N/A   Overcast
12:55 PM 28.4 °F 16.6 °F 28.4 °F 100% 29.67 in 3.0 mi NW 16.1 mph - N/A Rain Light Freezing Rain
1:15 PM 26.6 °F 14.7 °F 26.6 °F 100% 29.68 in 3.0 mi NW 15.0 mph - N/A Rain Light Freezing Rain
1:35 PM 26.6 °F 13.4 °F 26.6 °F 100% 29.68 in 4.0 mi WNW 18.4 mph - N/A Rain Light Freezing Rain
1:55 PM 26.6 °F 14.7 °F 26.6 °F 100% 29.69 in 4.0 mi WNW 15.0 mph 19.6 mph N/A Rain Light Freezing Rain
2:15 PM 24.8 °F 11.5 °F 24.8 °F 100% 29.69 in 10.0 mi NW 17.3 mph 24.2 mph N/A Rain Light Freezing Rain
2:35 PM 24.8 °F 11.1 °F 24.8 °F 100% 29.70 in 10.0 mi WNW 18.4 mph - N/A Rain Light Freezing Rain
3:15 PM 24.8 °F 10.7 °F 24.8 °F 100% 29.71 in 10.0 mi NW 19.6 mph 26.5 mph N/A Rain Light Freezing Rain
3:35 PM 24.8 °F 11.5 °F 24.8 °F 100% 29.73 in 9.0 mi NW 17.3 mph 25.3 mph N/A Rain Light Freezing Rain
3:55 PM 24.8 °F 11.5 °F 24.8 °F 100% 29.73 in 5.0 mi NW 17.3 mph 25.3 mph N/A Snow Light Snow
4:15 PM 23.0 °F 8.0 °F 23.0 °F 100% 29.74 in 3.0 mi NW 20.7 mph 26.5 mph 0.01 in Snow Light Snow
4:35 PM 23.0 °F 6.6 °F 23.0 °F 100% 29.75 in 1.8 mi NW 25.3 mph 31.1 mph 0.07 in Snow Light Snow
4:55 PM 23.0 °F 7.2 °F 23.0 °F 100% 29.75 in 1.8 mi NW 23.0 mph 28.8 mph 0.13 in Snow Light Snow
5:15 PM 23.0 °F 6.9 °F 23.0 °F 100% 29.77 in 2.5 mi NW 24.2 mph 33.4 mph 0.01 in Snow Light Snow
5:35 PM 23.0 °F 5.4 °F 23.0 °F 100% 29.78 in 1.5 mi NNW 29.9 mph 40.3 mph 0.02 in   Overcast
5:55 PM 23.0 °F 6.0 °F 23.0 °F 100% 29.80 in 0.5 mi NNW 27.6 mph 35.7 mph 0.08 in Snow Snow
6:15 PM 23.0 °F 6.3 °F 23.0 °F 100% 29.83 in 0.8 mi NNW 26.5 mph 35.7 mph 0.05 in Snow Light Snow
6:35 PM 23.0 °F 6.3 °F 23.0 °F 100% 29.84 in 0.5 mi NNW 26.5 mph 38.0 mph 0.11 in Snow Snow
6:55 PM 23.0 °F 5.4 °F 23.0 °F 100% 29.86 in 0.2 mi NNW 29.9 mph 42.6 mph 0.33 in Snow Heavy Snow
7:15 PM 23.0 °F 5.7 °F 23.0 °F 100% 29.88 in 0.8 mi NNW 28.8 mph 38.0 mph 0.28 in Snow Light Snow
7:35 PM 23.0 °F 5.4 °F 23.0 °F 100% 29.90 in 0.8 mi NNW 29.9 mph 39.1 mph 0.67 in Snow Light Snow
7:55 PM 23.0 °F 5.7 °F 23.0 °F 100% 29.92 in 0.8 mi NNW 28.8 mph 36.8 mph 0.97 in Snow Light Snow
8:35 PM 23.0 °F 6.6 °F 23.0 °F 100% 29.96 in 1.0 mi NNW 25.3 mph 36.8 mph 0.22 in Snow Light Snow
8:55 PM 23.0 °F 6.0 °F 23.0 °F 100% 29.97 in 1.2 mi NNW 27.6 mph 36.8 mph 0.40 in Snow Light Snow
9:15 PM 23.0 °F 5.7 °F 23.0 °F 100% 30.00 in 1.5 mi NNW 28.8 mph 35.7 mph 0.11 in Snow Light Snow
9:35 PM 23.0 °F 5.7 °F 23.0 °F 100% 30.01 in 1.8 mi NNW 28.8 mph 36.8 mph 0.28 in Snow Light Snow
9:55 PM 23.0 °F 6.9 °F 23.0 °F 100% 30.03 in 2.0 mi NNW 24.2 mph 34.5 mph 0.50 in Snow Light Snow
10:15 PM 21.2 °F 3.3 °F 21.2 °F 100% 30.03 in 2.0 mi North 28.8 mph 34.5 mph 0.10 in Snow Light Snow
10:35 PM 21.2 °F 5.2 °F 21.2 °F 100% 30.04 in 3.0 mi NNW 21.9 mph 28.8 mph 0.18 in Snow Light Snow
10:55 PM 21.2 °F 4.5 °F 21.2 °F 100% 30.06 in 1.8 mi North 24.2 mph 31.1 mph 0.28 in Snow Light Snow
11:15 PM 19.4 °F 2.5 °F 19.4 °F 100% 30.07 in 3.0 mi North 23.0 mph 33.4 mph 0.04 in Snow Light Snow
11:55 PM 19.4 °F 1.8 °F 19.4 °F 100% 30.10 in 5.0 mi North 25.3 mph 31.1 mph 0.08 in Snow Light Snow